Location: Newark
(41.6500°N, 71.4833°W)
Time: 18:19:24
(UTC+00:00)

Transit 2A Rocket - Pass Details

Date: 28 January 2020
Orbit: 592 x 911 km, 66.7° (Epoch: 16 February)

Event Time Altitude Azimuth Distance (km) Brightness Sun altitude
Rises 08:40:14 0° 193° (SSW) 2,846 - -37.7°
Reaches altitude 10° 08:42:34 10° 187° (S) 1,928 - -37.3°
Maximum altitude 08:46:39 44° 114° (ESE) 819 - -36.5°
Exits shadow 08:50:31 11° 43° (NE) 1,848 7.5 -35.8°
Drops below altitude 10° 08:50:45 10° 43° (NE) 1,939 7.6 -35.8°
Sets 08:53:05 0° 37° (NE) 2,864 8.5 -35.3°
